DW6950 Weather Reports


time (UTC)temp
C
wind
direction
speed
KPH
gust
KPH
rain 1hr
cm
rain 24hr
cm
rain mn
cm
humidity
%
barometer
mb
20260502123034 17 187 0.0 0.0 0.00 0.00 0.00 41 1009.9
20260502121525 17 266 0.0 0.0 0.00 0.00 0.00 40 1009.7
20260502114518 18 266 0.0 0.0 0.00 0.00 0.00 38 1009.5
20260502113021 18 266 0.0 0.0 0.00 0.00 0.00 37 1009.4
20260502111512 18 212 0.0 0.0 0.00 0.00 0.00 36 1009.5
20260502110019 20 212 0.0 0.0 0.00 0.00 0.00 35 1009.4
20260502104532 19 206 0.0 0.0 0.00 0.00 0.00 35 1009.2
20260502103023 20 206 0.0 0.0 0.00 0.00 0.00 34 1009.0
20260502101524 19 25 0.0 0.0 0.00 0.00 0.00 34 1009.0
20260502091515 20 23 0.0 0.0 0.00 0.00 0.00 35 1008.7
20260502071528 21 62 0.0 0.0 0.00 0.00 0.00 34 1008.1
20260502070019 21 62 0.0 0.0 0.00 0.00 0.00 36 1008.1
20260502064521 21 62 0.0 0.0 0.00 0.00 0.00 34 1008.0
20260502063018 21 219 0.0 0.0 0.00 0.00 0.00 35 1007.9
20260502061616 22 135 0.0 0.0 0.00 0.00 0.00 34 1007.8
20260502060020 22 212 0.0 0.0 0.00 0.00 0.00 35 1007.6
20260502054511 22 212 0.0 0.0 0.00 0.00 0.00 34 1007.6
20260502053028 22 212 0.0 0.0 0.00 0.00 0.00 33 1007.4
20260502051521 22 212 0.0 0.0 0.00 0.00 0.00 31 1007.3
20260502050032 23 212 0.0 0.0 0.00 0.00 0.00 30 1007.2
20260502044525 23 212 0.0 0.0 0.00 0.00 0.00 28 1007.2
20260502043023 24 212 0.0 0.0 0.00 0.00 0.00 27 1007.2
20260502041529 24 212 0.0 0.0 0.00 0.00 0.00 27 1006.9
20260502040018 25 212 0.0 0.0 0.00 0.00 0.00 26 1006.9
20260502034554 25 212 0.0 0.0 0.00 0.00 0.00 26 1006.6
20260502033027 26 212 0.0 0.0 0.00 0.00 0.00 24 1006.5
20260502031522 27 212 0.0 1.6 0.00 0.00 0.00 22 1006.3
20260502030016 28 210 0.0 4.8 0.00 0.00 0.00 21 1006.0
20260502024513 28 143 0.0 6.4 0.00 0.00 0.00 21 1006.0
20260502023013 29 184 1.6 6.4 0.00 0.00 0.00 21 1005.8
20260502021509 29 209 0.0 4.8 0.00 0.00 0.00 20 1005.6
20260502020023 30 202 0.0 6.4 0.00 0.00 0.00 21 1005.5
20260502014531 31 176 1.6 8.0 0.00 0.00 0.00 20 1005.4
20260502013201 31 204 0.0 1.6 0.00 0.00 0.00 19 1005.4
20260502011514 31 238 0.0 6.4 0.00 0.00 0.00 19 1005.5
20260502010015 31 322 0.0 6.4 0.00 0.00 0.00 19 1005.6
20260502004509 32 236 0.0 6.4 0.00 0.00 0.00 20 1005.7
20260502003025 31 196 1.6 9.7 0.00 0.00 0.00 20 1005.6
20260502001525 32 4 0.0 4.8 0.00 0.00 0.00 20 1005.6
20260502000024 32 237 0.0 8.0 0.00 0.00 0.00 20 1005.8
20260501234521 31 295 0.0 9.7 0.00 0.00 0.00 20 1005.8
20260501233020 32 215 0.0 9.7 0.00 0.00 0.00 19 1005.9
20260501231520 32 169 1.6 9.7 0.00 0.00 0.00 19 1006.0
20260501230019 31 210 0.0 11.3 0.00 0.00 0.00 19 1006.1
20260501224512 31 225 3.2 16.1 0.00 0.00 0.00 22 1006.2
20260501223012 31 195 1.6 9.7 0.00 0.00 0.00 22 1006.4
20260501221507 31 207 4.8 12.9 0.00 0.00 0.00 22 1006.6
20260501220023 31 297 3.2 16.1 0.00 0.00 0.00 23 1006.7
20260501214521 31 233 1.6 11.3 0.00 0.00 0.00 22 1007.0
20260501213016 31 289 3.2 9.7 0.00 0.00 0.00 23 1007.2
20260501211514 31 159 0.0 12.9 0.00 0.00 0.00 23 1007.5
20260501210017 32 255 1.6 4.8 0.00 0.00 0.00 23 1007.6
20260501204513 31 262 0.0 9.7 0.00 0.00 0.00 23 1007.9
20260501203012 31 162 1.6 9.7 0.00 0.00 0.00 22 1008.0
20260501201512 30 278 1.6 11.3 0.00 0.00 0.00 24 1008.1
20260501200014 30 295 0.0 12.9 0.00 0.00 0.00 24 1008.3
20260501194511 30 278 0.0 8.0 0.00 0.00 0.00 25 1008.4
20260501193016 31 205 0.0 6.4 0.00 0.00 0.00 25 1008.7
20260501191512 30 253 0.0 3.2 0.00 0.00 0.00 26 1008.9
20260501190012 29 271 0.0 9.7 0.00 0.00 0.00 27 1009.0
20260501184518 28 288 6.4 11.3 0.00 0.00 0.00 28 1009.3
20260501183015 28 148 0.0 9.7 0.00 0.00 0.00 28 1009.5
20260501181509 29 195 1.6 6.4 0.00 0.00 0.00 28 1009.8
20260501180034 29 52 0.0 8.0 0.00 0.00 0.00 28 1010.0
20260501174537 28 201 1.6 6.4 0.00 0.00 0.00 29 1010.1
20260501173030 28 352 0.0 8.0 0.00 0.00 0.00 29 1010.2
20260501171526 27 226 0.0 3.2 0.00 0.00 0.00 31 1010.2
20260501170024 27 320 0.0 1.6 0.00 0.00 0.00 32 1010.2
20260501164525 26 348 0.0 4.8 0.00 0.00 0.00 33 1010.2
20260501163023 26 329 1.6 4.8 0.00 0.00 0.00 33 1010.3
20260501161520 26 205 0.0 4.8 0.00 0.00 0.00 33 1010.2
20260501160021 26 236 0.0 0.0 0.00 0.00 0.00 34 1010.2
20260501154519 26 169 0.0 0.0 0.00 0.00 0.00 35 1010.1
20260501153030 25 203 0.0 0.0 0.00 0.00 0.00 37 1010.0
20260501151523 24 228 0.0 1.6 0.00 0.00 0.00 38 1009.8
20260501150013 23 84 0.0 1.6 0.00 0.00 0.00 39 1009.7
20260501144527 23 65 0.0 1.6 0.00 0.00 0.00 39 1009.7
20260501143024 23 118 0.0 1.6 0.00 0.00 0.00 41 1009.4